When you browse on this site, cookies collect data to enhance your experience and personalize the content and advertising you see.
Visit our Privacy Policy to learn more. By continuing to use the site, you agree to this use of cookies and data.
  • In Latvia
  • List of Countries
  • For 7 days
  • Water Temperature
  • Weather Map
  • Weather Widgets
  • user-avatar
    Login

    Hourly Weather Wettingen

    Today, 4 June, Thursday

    Time Temperature Precipitation Wind Pressure Humidity
    00:00 +15°C° 0.2 mm 1 mps 712 mmHg 91%
    01:00 +15°C° 0 mm 2 mps 712 mmHg 95%
    02:00 +15°C° 0.2 mm 2 mps 712 mmHg 95%
    03:00 +14°C° 0.2 mm 1 mps 711 mmHg 95%
    04:00 +14°C° 0.2 mm 1 mps 711 mmHg 95%
    05:00 +14°C° 0.2 mm 1 mps 710 mmHg 95%
    06:00 +14°C° 0.2 mm 1 mps 710 mmHg 95%
    07:00 +15°C° 0.2 mm 1 mps 710 mmHg 95%
    08:00 +15°C° 0.3 mm 1 mps 710 mmHg 94%
    09:00 +15°C° 0.3 mm 2 mps 710 mmHg 94%
    10:00 +15°C° 0.3 mm 2 mps 710 mmHg 93%
    11:00 +15°C° 1.2 mm 2 mps 709 mmHg 92%
    12:00 +15°C° 1.2 mm 2 mps 709 mmHg 91%
    13:00 +15°C° 1.2 mm 2 mps 709 mmHg 90%
    14:00 +15°C° 0.5 mm 2 mps 709 mmHg 90%
    15:00 +15°C° 0.5 mm 2 mps 709 mmHg 89%
    16:00 +16°C° 0.5 mm 2 mps 709 mmHg 89%
    17:00 +15°C° 0.5 mm 2 mps 709 mmHg 90%
    18:00 +14°C° 0.5 mm 2 mps 709 mmHg 91%
    19:00 +14°C° 0.5 mm 2 mps 709 mmHg 92%
    20:00 +13°C° 0.2 mm 2 mps 709 mmHg 93%
    21:00 +13°C° 0.2 mm 2 mps 710 mmHg 93%
    22:00 +12°C° 0.2 mm 1 mps 710 mmHg 94%
    23:00 +12°C° 0.2 mm 1 mps 710 mmHg 94%

    Tomorrow, 5 June, Friday

    Time Temperature Precipitation Wind Pressure Humidity
    00:00 +12°C° 0.2 mm 1 mps 710 mmHg 95%
    01:00 +12°C° 0.2 mm 1 mps 711 mmHg 95%
    02:00 +11°C° 0.4 mm 1 mps 711 mmHg 95%
    03:00 +11°C° 0.4 mm 1 mps 711 mmHg 96%
    04:00 +11°C° 0.4 mm 1 mps 711 mmHg 97%
    05:00 +10°C° 0.1 mm 2 mps 711 mmHg 95%
    06:00 +12°C° 0.1 mm 2 mps 711 mmHg 94%
    07:00 +11°C° 0.1 mm 3 mps 712 mmHg 92%
    08:00 +11°C° 0.4 mm 3 mps 712 mmHg 90%
    09:00 +12°C° 0.4 mm 3 mps 712 mmHg 87%
    10:00 +12°C° 0.4 mm 4 mps 712 mmHg 85%
    11:00 +14°C° 0.2 mm 4 mps 712 mmHg 74%
    12:00 +15°C° 0.2 mm 5 mps 712 mmHg 62%
    13:00 +17°C° 0.2 mm 6 mps 712 mmHg 51%
    14:00 +16°C° 0 mm 6 mps 712 mmHg 55%
    15:00 +15°C° 0 mm 6 mps 712 mmHg 59%
    16:00 +15°C° 0 mm 6 mps 713 mmHg 63%
    17:00 +14°C° 0 mm 6 mps 713 mmHg 66%
    18:00 +14°C° 0 mm 6 mps 713 mmHg 69%
    19:00 +13°C° 0 mm 6 mps 713 mmHg 71%
    20:00 +13°C° 0.2 mm 6 mps 713 mmHg 76%
    21:00 +13°C° 0.2 mm 5 mps 714 mmHg 81%
    22:00 +12°C° 0.2 mm 5 mps 714 mmHg 86%
    23:00 +12°C° 0.4 mm 4 mps 714 mmHg 88%

    Day after tomorrow, 6 June, Saturday

    Time Temperature Precipitation Wind Pressure Humidity
    00:00 +12°C° 0.4 mm 4 mps 714 mmHg 90%
    01:00 +12°C° 0.4 mm 3 mps 714 mmHg 92%
    02:00 +12°C° 0.4 mm 3 mps 714 mmHg 91%
    03:00 +12°C° 0.4 mm 4 mps 714 mmHg 91%
    04:00 +12°C° 0.4 mm 4 mps 714 mmHg 91%
    05:00 +12°C° 0 mm 4 mps 714 mmHg 88%
    06:00 +13°C° 0 mm 4 mps 714 mmHg 85%
    07:00 +13°C° 0 mm 4 mps 714 mmHg 82%
    08:00 +15°C° 0 mm 5 mps 715 mmHg 76%
    09:00 +16°C° 0 mm 5 mps 715 mmHg 71%
    10:00 +17°C° 0 mm 6 mps 715 mmHg 66%
    11:00 +19°C° 0.1 mm 6 mps 715 mmHg 62%
    12:00 +20°C° 0.1 mm 6 mps 715 mmHg 57%
    13:00 +21°C° 0.1 mm 7 mps 715 mmHg 53%
    14:00 +20°C° 0.1 mm 7 mps 715 mmHg 55%
    15:00 +20°C° 0.1 mm 6 mps 715 mmHg 58%
    16:00 +19°C° 0.1 mm 6 mps 715 mmHg 60%
    17:00 +17°C° 0.1 mm 5 mps 715 mmHg 67%
    18:00 +17°C° 0.1 mm 4 mps 715 mmHg 74%
    19:00 +14°C° 0.1 mm 4 mps 715 mmHg 81%
    20:00 +13°C° 0.6 mm 3 mps 716 mmHg 86%
    21:00 +14°C° 0.6 mm 2 mps 716 mmHg 91%
    22:00 +13°C° 0.6 mm 1 mps 716 mmHg 96%
    23:00 +12°C° 0.7 mm 1 mps 716 mmHg 97%

    7 June, Sunday

    Time Temperature Precipitation Wind Pressure Humidity
    00:00 +12°C° 0.7 mm 1 mps 716 mmHg 97%
    01:00 +12°C° 0.7 mm 1 mps 717 mmHg 97%
    02:00 +12°C° 1 mm 1 mps 717 mmHg 97%
    03:00 +11°C° 1 mm 1 mps 717 mmHg 97%
    04:00 +11°C° 1 mm 1 mps 717 mmHg 96%
    05:00 +11°C° 0.6 mm 1 mps 717 mmHg 96%
    06:00 +11°C° 0.6 mm 1 mps 717 mmHg 96%
    07:00 +10°C° 0.6 mm 1 mps 718 mmHg 95%
    08:00 +11°C° 0.3 mm 1 mps 718 mmHg 91%
    09:00 +12°C° 0.3 mm 1 mps 718 mmHg 86%
    10:00 +12°C° 0.3 mm 1 mps 719 mmHg 82%
    11:00 +12°C° 0.1 mm 1 mps 718 mmHg 81%
    12:00 +13°C° 0.1 mm 1 mps 718 mmHg 81%
    13:00 +13°C° 0.1 mm 1 mps 718 mmHg 80%
    14:00 +13°C° 0 mm 1 mps 718 mmHg 77%
    15:00 +14°C° 0 mm 1 mps 718 mmHg 73%
    16:00 +14°C° 0 mm 1 mps 718 mmHg 70%
    17:00 +14°C° 0 mm 1 mps 719 mmHg 71%
    18:00 +14°C° 0 mm 1 mps 719 mmHg 72%
    19:00 +14°C° 0 mm 1 mps 719 mmHg 73%
    20:00 +13°C° 0 mm 1 mps 719 mmHg 79%
    21:00 +11°C° 0 mm 1 mps 719 mmHg 85%
    22:00 +8°C° 0 mm 0 mps 720 mmHg 91%
    23:00 +8°C° 0 mm 0 mps 719 mmHg 91%

    8 June, Monday

    Time Temperature Precipitation Wind Pressure Humidity
    00:00 +7°C° 0 mm 0 mps 719 mmHg 92%
    01:00 +7°C° 0 mm 0 mps 719 mmHg 93%
    02:00 +7°C° 0 mm 0 mps 719 mmHg 93%
    03:00 +6°C° 0 mm 0 mps 719 mmHg 93%
    04:00 +6°C° 0 mm 0 mps 719 mmHg 93%
    05:00 +8°C° 0 mm 0 mps 719 mmHg 89%
    06:00 +9°C° 0 mm 0 mps 719 mmHg 84%
    07:00 +11°C° 0 mm 0 mps 719 mmHg 80%
    08:00 +13°C° 0 mm 0 mps 720 mmHg 72%
    09:00 +15°C° 0 mm 0 mps 720 mmHg 65%
    10:00 +17°C° 0 mm 0 mps 720 mmHg 57%
    11:00 +20°C° 0.1 mm 1 mps 720 mmHg 55%
    12:00 +20°C° 0.1 mm 1 mps 720 mmHg 54%
    13:00 +21°C° 0.1 mm 1 mps 720 mmHg 52%
    14:00 +19°C° 0.3 mm 1 mps 720 mmHg 61%
    15:00 +18°C° 0.3 mm 1 mps 720 mmHg 71%
    16:00 +15°C° 0.3 mm 2 mps 720 mmHg 80%
    17:00 +14°C° 0.3 mm 1 mps 720 mmHg 83%
    18:00 +14°C° 0.3 mm 1 mps 720 mmHg 85%
    19:00 +13°C° 0.3 mm 1 mps 720 mmHg 88%
    20:00 +13°C° 0.1 mm 1 mps 720 mmHg 89%
    21:00 +12°C° 0.1 mm 1 mps 721 mmHg 90%
    22:00 +10°C° 0.1 mm 0 mps 721 mmHg 91%
    23:00 +10°C° 0.3 mm 0 mps 721 mmHg 92%

    9 June, Tuesday

    Time Temperature Precipitation Wind Pressure Humidity
    00:00 +10°C° 0.3 mm 0 mps 721 mmHg 94%
    01:00 +10°C° 0.3 mm 0 mps 721 mmHg 95%
    02:00 +10°C° 0.6 mm 0 mps 721 mmHg 96%
    03:00 +10°C° 0.6 mm 0 mps 721 mmHg 96%
    04:00 +10°C° 0.6 mm 0 mps 721 mmHg 97%
    05:00 +10°C° 0.4 mm 0 mps 721 mmHg 97%
    06:00 +10°C° 0.4 mm 0 mps 722 mmHg 96%
    07:00 +11°C° 0.4 mm 0 mps 722 mmHg 96%
    08:00 +11°C° 0.5 mm 0 mps 722 mmHg 95%
    09:00 +11°C° 0.5 mm 0 mps 722 mmHg 94%
    10:00 +12°C° 0.5 mm 0 mps 722 mmHg 93%
    11:00 +12°C° 0.3 mm 0 mps 722 mmHg 93%
    12:00 +12°C° 0.3 mm 0 mps 722 mmHg 92%
    13:00 +12°C° 0.3 mm 0 mps 722 mmHg 92%
    14:00 +14°C° 0.2 mm 0 mps 722 mmHg 85%
    15:00 +16°C° 0.2 mm 1 mps 722 mmHg 79%
    16:00 +18°C° 0.2 mm 1 mps 722 mmHg 73%
    17:00 +16°C° 0.3 mm 1 mps 722 mmHg 77%
    18:00 +16°C° 0.3 mm 1 mps 722 mmHg 81%
    19:00 +15°C° 0.3 mm 1 mps 722 mmHg 85%
    20:00 +13°C° 0.2 mm 0 mps 723 mmHg 88%
    21:00 +12°C° 0.2 mm 0 mps 723 mmHg 91%
    22:00 +10°C° 0.2 mm 0 mps 723 mmHg 94%
    23:00 +10°C° 0.1 mm 0 mps 723 mmHg 94%
    Show more